Terug naar catalogus

STARLINK-34723

ActiefCommunicatieSSO
NORAD 64842·PAYLOAD·🇺🇸 United States

Gelanceerd Jul 19, 2025 vanaf Vandenberg Space Force Base

Loading…

Volgende Passages (komende 24 uur)

TLE

VersSource: CelesTrak SupGP

Epoch: Sep 14, 2026, 21:11 UTC

1 64842C 25152A   26257.88312500  .00052473  00000+0  16296-2 0  2571
2 64842  97.2846 108.5452 0001601  92.4526 318.3409 15.33398911    15

Volg STARLINK-34723 in realtime met AllMySat

Download on the App Store